Regional Weather Roundup
Issued by NWS State College, PA

Home | Current Version | Previous Version | Text Only | Print | Product List | Glossary On
Versions: 1 2 3 4 5 6 7 8 9 10 11 12 13 14 15 16 17 18 19 20 21 22 23 24 25 26 27 28 29 30 31 32 33 34 35 36 37 38 39 40 41 42 43 44 45 46 47 48 49 50
000
ASUS41 KCTP 201103
RWRCTP

REGIONAL WEATHER ROUNDUP
NATIONAL WEATHER SERVICE STATE COLLEGE PA
700 AM EDT SUN AUG 20 2017

Note: "fair" indicates few or no clouds below 12,000 feet with no
significant weather and/or obstructions to visibility.

* = STATION THAT DOES NOT REPORT PRECIPITATION /E.G. RAIN...SNOW...ETC/
    THUNDER OR FOG.

PAZ002>004-007>009-013>016-020>023-029>032-201200-
WESTERN PENNSYLVANIA

CITY           SKY/WX    TMP DP  RH WIND       PRES   REMARKS
ERIE           CLEAR     62  58  86 S6        30.08R
MEADVILLE      CLEAR     59  58  96 S6        30.12R
FRANKLIN*      MOCLDY    55  52  88 SW3       30.14R VSB 3/4
NEW CASTLE     FAIR      55  55 100 CALM      30.12S FOG
BEAVER COUNTY  NOT AVBL
BUTLER*        CLOUDY    54  54 100 CALM      30.14R VSB<1/4
PITTSBURGH INT FOG       59  59 100 CALM      30.12R VSB 1/16
PITTSBURGH     FOG       60  58  92 CALM      30.12R VSB<1/4
INDIANA*       FOG       55  55 100 CALM      30.17R VSB 0
LATROBE        FOG       55  55 100 CALM      30.14R VSB 1/2
WASHINGTON CO* CLOUDY    55  54  94 CALM      30.12R VSB 1/2
$$

PAZ004>006-010>012-017>019-024>028-033>037-041-042-045-046-049>053-201200-
CENTRAL PENNSYLVANIA

CITY           SKY/WX    TMP DP  RH WIND       PRES   REMARKS
BRADFORD       PTCLDY    50  50 100 CALM      30.14R
DUBOIS         FOG       53  52  96 CALM      30.14R VSB<1/4
CLEARFIELD     FOG       59  59 100 SW5       30.14R VSB 1/4
JOHNSTOWN      PTCLDY    57  56  96 NW3       30.15R FOG
ALTOONA        CLEAR     56  56 100 CALM      30.14R FOG
STATE COLLEGE  CLEAR     57  57 100 CALM      30.12R
WILLIAMSPORT   MOCLDY    63  61  93 W10       30.08R
SELINSGROVE    CLEAR     58  58 100 CALM      30.10R FOG
FT INDIANTOWN  CLEAR     65  59  81 NW6       30.08R
CAPITAL CITY   CLEAR     65  59  81 W8        30.08R
HARRISBURG     PTCLDY    67  61  81 W8        30.08R
YORK           CLEAR     58  58 100 CALM      30.09R
$$

PAZ038>040-043-044-047-048-054-055-060>062-067>071-201200-
EASTERN PENNSYLVANIA

CITY           SKY/WX    TMP DP  RH WIND       PRES   REMARKS
SCRANTON       PTCLDY    62  61  96 SW5       30.08R FOG
MOUNT POCONO     N/A     58  58 100 NW8       30.08R
ALLENTOWN      CLEAR     62  59  90 SW6       30.05R
QUAKERTOWN*    SUNNY     59  59 100 CALM      30.07R
READING        CLEAR     65  62  90 NW5       30.06R
LANCASTER      CLEAR     62  61  96 W5        30.07R
COATESVILLE    SUNNY     61  61 100 NW7       30.09R
POTTSTOWN      CLEAR     61  61 100 NW3       30.08R
BLUE BELL      CLEAR     63  61  94 NW3       30.07R
DOYLESTOWN     CLEAR     63  60  90 NW5       30.05R
WILLOW GROVE   NOT AVBL
NORTH PHILA    CLEAR     67  61  81 NW6       30.06R
PHILADELPHIA   PTCLDY    69  60  73 NW7       30.05R
$$




USA.gov is the U.S. government's official web portal to all federal, state and local government web resources and services.